Flight Track Log - Related Links

Times and Time Zones

All times are in EDT time to prevent confusion due to time zone crossing. See the TAM3131 flight status page for this flight to view local times or setup timezone preferences in your user account.

Time Position Orientation Groundspeed Altitude Reporting Facility
EDT Latitude Longitude Course Direction KTS MPH feet Rate Location/Type
10:54AM -22.3561 -44.1616 239° Southwest  Level Estimated
10:55AM -22.3963 -44.2387 241° Southwest  Level Estimated
10:56AM -22.4365 -44.3158 241° Southwest  Level Estimated
10:57AM -22.4767 -44.3930 241° Southwest  Level Estimated
10:58AM -22.5168 -44.4703 241° Southwest  Level Estimated
10:59AM -22.5569 -44.5476 241° Southwest  Level Estimated
11:00AM -22.5969 -44.6249 241° Southwest  Level Estimated
11:01AM -22.6369 -44.7023 241° Southwest  Level Estimated
11:02AM -22.6769 -44.7797 241° Southwest  Level Estimated
11:03AM -22.7168 -44.8572 241° Southwest  Level Estimated
11:04AM -22.7567 -44.9347 241° Southwest  Level Estimated
11:05AM -22.7966 -45.0122 241° Southwest  Level Estimated
11:06AM -22.8364 -45.0898 241° Southwest  Level Estimated
11:07AM -22.8762 -45.1675 241° Southwest  Level Estimated
11:08AM -22.9159 -45.2452 241° Southwest  Level Estimated
11:09AM -22.9556 -45.3229 241° Southwest  Level Estimated
11:10AM -22.9953 -45.4007 241° Southwest  Level Estimated
11:11AM -23.0349 -45.4785 241° Southwest  Level Estimated
11:12AM -23.0745 -45.5564 241° Southwest  Level Estimated
11:13AM -23.1141 -45.6343 241° Southwest  Level Estimated
11:14AM -23.1536 -45.7123 241° Southwest  Level Estimated
11:15AM -23.1931 -45.7903 241° Southwest  Level Estimated
11:16AM -23.2325 -45.8684 241° Southwest  Level Estimated
11:17AM -23.2719 -45.9465 241° Southwest  Level Estimated
11:18AM -23.3113 -46.0247 241° Southwest  Level Estimated
11:19AM -23.3506 -46.1029 241° Southwest  Level Estimated
11:20AM -23.3899 -46.1811 241° Southwest  Level Estimated
11:21AM -23.4291 -46.2594 241° Southwest  Level Estimated
11:22AM -23.4684 -46.3377 241° Southwest  Level Estimated
11:23AM -23.5075 -46.4161 241° Southwest  Level Estimated
11:24AM -23.5467 -46.4945 241° Southwest  Level Estimated
11:25AM -23.5858 -46.5730 241° Southwest  Level Estimated
11:26AM -23.6248 -46.6516 241° Southwest  Level Estimated
11:27AM -23.6267 -46.6554 242° Southwest  Level Estimated
11:28AM -23.6267 -46.6554 114° Southeast  Level Estimated
11:29AM -23.6267 -46.6554 114° Southeast  Level Estimated
11:30AM -23.6267 -46.6554 114° Southeast  Level Estimated
11:31AM -23.6267 -46.6554 114° Southeast  Level Estimated

Login

Don't have an account? Register now (free) for customized features, flight alerts, and more!